Terug naar catalogus

STARLINK-30867

ActiefCommunicatieVLEO
NORAD 58231·PAYLOAD·🇺🇸 United States

Gelanceerd Nov 8, 2023 vanaf Cape Canaveral Space Force Station

Loading…

Volgende Passages (komende 24 uur)

TLE

VersSource: CelesTrak SupGP

Epoch: Sep 15, 2026, 02:19 UTC

1 58231C 23171B   26258.09701389  .00025005  00000+0  90569-3 0  2584
2 58231  43.0019 295.2539 0001274 257.2676 172.2603 15.27565839    15

Volg STARLINK-30867 in realtime met AllMySat

Download on the App Store